TimePST,TemperatureF,Dew PointF,Humidity,Sea Level PressureIn,VisibilityMPH,Wind Direction,Wind SpeedMPH,Gust SpeedMPH,PrecipitationIn,Events,Conditions,WindDirDegrees,DateUTC
12:58 AM,36.1,35.8,99,30.32,10.0,East,3.5,-,N/A,,Clear,100,2012-11-22 08:58:00
1:58 AM,35.6,35.4,99,30.33,10.0,South,2.3,-,N/A,,Clear,180,2012-11-22 09:58:00
2:53 AM,32.0,32.0,100,30.33,2.5,Calm,Calm,-,N/A,,Clear,0,2012-11-22 10:53:00
2:58 AM,32.9,32.7,99,30.35,1.8,Calm,Calm,-,N/A,,Clear,0,2012-11-22 10:58:00
3:03 AM,32.0,32.0,100,30.33,2.5,Calm,Calm,-,N/A,,Clear,30,2012-11-22 11:03:00
3:08 AM,32.0,32.0,100,30.33,2.5,East,1.2,-,N/A,,Clear,100,2012-11-22 11:08:00
3:13 AM,32.0,32.0,100,30.33,1.2,East,1.2,-,N/A,,Clear,100,2012-11-22 11:13:00
3:18 AM,32.0,32.0,100,30.33,0.8,ESE,2.3,-,N/A,,Clear,110,2012-11-22 11:18:00
3:23 AM,32.0,32.0,100,30.33,1.0,Calm,Calm,-,N/A,,Clear,40,2012-11-22 11:23:00
3:33 AM,32.0,32.0,100,30.34,0.8,Calm,Calm,-,N/A,,Clear,0,2012-11-22 11:33:00
3:38 AM,32.0,32.0,100,30.34,1.0,Calm,Calm,-,N/A,,Clear,70,2012-11-22 11:38:00
3:48 AM,32.0,32.0,100,30.34,0.8,Calm,Calm,-,N/A,,Clear,0,2012-11-22 11:48:00
3:53 AM,32.0,32.0,100,30.34,0.8,Calm,Calm,-,N/A,,Clear,0,2012-11-22 11:53:00
3:58 AM,32.0,32.0,100,30.36,1.0,Calm,Calm,-,N/A,,Clear,0,2012-11-22 11:58:00
4:03 AM,32.0,32.0,100,30.34,0.8,Calm,Calm,-,N/A,,Clear,0,2012-11-22 12:03:00
4:13 AM,32.0,32.0,100,30.34,1.0,South,1.2,-,N/A,,Clear,190,2012-11-22 12:13:00
4:18 AM,32.0,32.0,100,30.34,0.8,Calm,Calm,-,N/A,,Clear,90,2012-11-22 12:18:00
4:23 AM,32.0,32.0,100,30.34,0.8,East,1.2,-,N/A,,Clear,100,2012-11-22 12:23:00
4:33 AM,32.0,32.0,100,30.35,1.0,East,1.2,-,N/A,,Clear,80,2012-11-22 12:33:00
4:38 AM,32.0,32.0,100,30.35,1.2,East,2.3,-,N/A,,Clear,90,2012-11-22 12:38:00
4:48 AM,32.0,32.0,100,30.35,1.0,East,1.2,-,N/A,,Clear,90,2012-11-22 12:48:00
4:58 AM,31.1,30.7,99,30.37,1.5,ENE,2.3,-,N/A,,Clear,70,2012-11-22 12:58:00
5:03 AM,32.0,32.0,100,30.35,5.0,East,2.3,-,N/A,,Clear,80,2012-11-22 13:03:00
5:58 AM,31.8,31.5,99,30.38,10.0,Calm,Calm,-,N/A,,Scattered Clouds,0,2012-11-22 13:58:00
6:58 AM,31.3,31.1,99,30.38,10.0,ESE,3.5,-,N/A,,Clear,110,2012-11-22 14:58:00
7:28 AM,32.0,32.0,100,30.36,2.5,Calm,Calm,-,N/A,,Scattered Clouds,0,2012-11-22 15:28:00
7:33 AM,32.0,32.0,100,30.36,1.2,Calm,Calm,-,N/A,,Scattered Clouds,0,2012-11-22 15:33:00
7:38 AM,30.2,30.2,100,30.35,1.8,Calm,Calm,-,N/A,,Scattered Clouds,0,2012-11-22 15:38:00
7:43 AM,30.2,30.2,100,30.35,1.2,North,-9999.0,-,N/A,,Mostly Cloudy,0,2012-11-22 15:43:00
7:48 AM,30.2,30.2,100,30.35,0.5,Calm,Calm,-,N/A,Fog,Light Freezing Fog,40,2012-11-22 15:48:00
7:58 AM,32.0,30.2,93,30.37,0.8,North,-9999.0,-,N/A,,Scattered Clouds,0,2012-11-22 15:58:00
8:03 AM,32.0,32.0,100,30.36,1.5,Calm,Calm,-,N/A,,Scattered Clouds,0,2012-11-22 16:03:00
8:08 AM,32.0,32.0,100,30.36,3.0,Calm,Calm,-,N/A,,Partly Cloudy,0,2012-11-22 16:08:00
8:58 AM,32.2,32.0,99,30.38,10.0,Calm,Calm,-,N/A,,Overcast,30,2012-11-22 16:58:00
9:58 AM,36.0,35.6,99,30.37,10.0,Calm,Calm,-,N/A,,Partly Cloudy,0,2012-11-22 17:58:00
10:58 AM,38.7,38.5,99,30.37,10.0,Calm,Calm,-,N/A,,Scattered Clouds,360,2012-11-22 18:58:00
11:58 AM,42.1,38.8,88,30.35,10.0,Calm,Calm,-,N/A,,Overcast,50,2012-11-22 19:58:00
12:58 PM,44.6,39.7,83,30.32,10.0,Calm,Calm,-,N/A,,Mostly Cloudy,50,2012-11-22 20:58:00
1:58 PM,47.3,39.7,75,30.32,10.0,West,4.6,-,N/A,,Overcast,280,2012-11-22 21:58:00
2:58 PM,45.9,40.1,80,30.32,10.0,West,3.5,-,N/A,,Overcast,280,2012-11-22 22:58:00
3:58 PM,44.8,39.4,81,30.30,10.0,Calm,Calm,-,N/A,,Overcast,0,2012-11-22 23:58:00
4:58 PM,44.2,40.1,85,30.30,10.0,Calm,Calm,-,N/A,,Overcast,20,2012-11-23 00:58:00
5:58 PM,42.8,40.8,93,30.28,10.0,SSE,2.3,-,N/A,,Overcast,160,2012-11-23 01:58:00
6:58 PM,42.1,41.2,97,30.27,10.0,West,2.3,-,N/A,,Partly Cloudy,270,2012-11-23 02:58:00
7:58 PM,41.5,41.2,99,30.25,10.0,Calm,Calm,-,N/A,,Mostly Cloudy,0,2012-11-23 03:58:00
8:58 PM,41.4,41.0,99,30.24,10.0,WSW,4.6,-,N/A,,Overcast,250,2012-11-23 04:58:00
9:58 PM,42.1,41.4,97,30.25,10.0,Calm,Calm,-,N/A,,Partly Cloudy,330,2012-11-23 05:58:00
10:58 PM,41.2,41.0,99,30.25,10.0,South,2.3,-,N/A,,Scattered Clouds,180,2012-11-23 06:58:00
11:13 PM,41.0,41.0,100,30.23,10.0,SE,3.5,-,N/A,Rain,Light Rain,130,2012-11-23 07:13:00
11:58 PM,42.1,41.9,99,30.26,10.0,SE,3.5,-,0.02,Rain,Light Rain,130,2012-11-23 07:58:00